Location: Anaheim
(33.8350°N, 117.9140°W)
Time: 21:51:10
(UTC-07:00)

Amateur Radio Satellites - All Passes

Search period start: 27 July 2016 21:21
Search period end: 28 July 2016 21:21
Location: Anaheim, 33.8350°N, 117.9140°W

Satellite Date Start Highest point End Downlink Frequencies (MHz)
Time Altitude Azimuth
M-CUBED/EXP-1 PRIME 27 Jul 21:21:23 21:24:38 29° 66° (ENE) 21:28:08 437.505
AAUSAT CUBESAT 2 27 Jul 21:33:15 21:36:40 25° 264° (W) 21:40:07 437.432
PRISM 27 Jul 21:34:42 21:38:49 87° 288° (WNW) 21:42:56 437.425
CUBEBUG 2 27 Jul 21:35:09 21:39:09 30° 264° (W) 21:43:16 437.445
YUBILEINY 27 Jul 21:43:34 21:52:18 68° 268° (W) 22:00:58 435.215
AUBIESAT-1 27 Jul 21:46:26 21:50:04 50° 69° (ENE) 21:53:59 437.475
DELFI C3 27 Jul 21:49:18 21:53:15 71° 78° (ENE) 21:57:13 145.870
Oscar 11 27 Jul 21:50:45 21:54:53 43° 261° (W) 21:59:03 145.826/435.025
PHONESAT 2.4 27 Jul 21:53:15 21:56:21 85° 204° (SSW) 21:59:25 2401.200-2431.200
ANTELSAT 27 Jul 21:58:39 22:00:09 11° 91° (E) 22:01:39 437.575/2403.000
HUMSAT D 27 Jul 22:18:30 22:22:47 73° 77° (ENE) 22:27:05 437.325/437.525
ISS 27 Jul 22:20:29 22:21:47 12° 332° (NNW) 22:23:07 145.825
AO-85 27 Jul 22:34:13 22:38:05 31° 55° (NE) 22:41:41 145.980
TIGRISAT 27 Jul 22:37:51 22:41:59 32° 97° (E) 22:46:00 435.000
FUNcube-1 27 Jul 22:48:00 22:49:40 12° 268° (W) 22:51:21 145.935
ZACube-1 27 Jul 22:50:11 22:51:05 11° 269° (W) 22:51:59 437.345
UNISAT 6 27 Jul 22:54:10 22:58:42 55° 100° (E) 23:03:06 437.425
M-CUBED/EXP-1 PRIME 27 Jul 22:57:04 22:59:16 15° 263° (W) 23:01:34 437.505
Cosmos 2504 27 Jul 22:59:34 23:07:26 61° 269° (W) 23:14:43 435.465 / 435.565
50 SAT 27 Jul 23:01:08 23:03:25 16° 70° (ENE) 23:05:43 437.505
Cosmos 2491 27 Jul 23:02:39 23:10:23 35° 285° (WNW) 23:18:10 435.465 / 435.565
ESTCUBE 1 27 Jul 23:07:29 23:11:41 40° 73° (ENE) 23:15:52 437.505/2401.250
QB50P2 27 Jul 23:12:05 23:13:14 11° 92° (E) 23:14:23 145.880/145.840
SPROUT 27 Jul 23:14:05 23:15:04 11° 66° (ENE) 23:16:04 437.525
POLYITAN 1 27 Jul 23:14:34 23:15:54 11° 92° (E) 23:17:12 437.675
CUBEBUG 1 27 Jul 23:20:15 23:24:10 35° 72° (ENE) 23:28:05 437.445
VELOX 1 27 Jul 23:21:10 23:25:01 31° 72° (ENE) 23:28:55 145.980
PHONESAT 2.4 27 Jul 23:31:22 23:32:28 12° 219° (SW) 23:33:36 2401.200-2431.200
ANTELSAT 27 Jul 23:32:40 23:37:09 53° 286° (WNW) 23:41:32 437.575/2403.000
NANOSAT C BR1 27 Jul 23:54:41 23:58:34 33° 98° (E) 00:02:26 145.865
DUCHIFAT 1 27 Jul 23:58:33 00:02:28 34° 98° (E) 00:06:20 145.980
DX 1 28 Jul 00:02:23 00:06:40 72° 76° (ENE) 00:11:00 434.975-435.025
AISAT 28 Jul 00:05:31 00:09:52 70° 258° (WSW) 00:14:16 437.250
BUGSAT 1 28 Jul 00:10:22 00:13:30 20° 95° (E) 00:16:37 437.445
UKube-1 28 Jul 00:14:29 00:18:46 78° 77° (ENE) 00:23:05 .
TIGRISAT 28 Jul 00:15:05 00:18:23 20° 292° (WNW) 00:21:38 435.000
AO-85 28 Jul 00:15:28 00:18:10 17° 252° (WSW) 00:20:46 145.980
QB50P1 28 Jul 00:17:17 00:21:34 70° 101° (ESE) 00:25:49 145.935-145.965
POPSAT HIP 1 28 Jul 00:23:48 00:28:07 83° 103° (ESE) 00:32:23 437.405
JAS-2 28 Jul 00:27:52 00:32:25 26° 98° (E) 00:37:19 435.910
UNISAT 6 28 Jul 00:33:01 00:34:51 12° 295° (WNW) 00:36:40 437.425
50 SAT 28 Jul 00:33:47 00:36:50 24° 263° (W) 00:39:53 437.505
AIST 1 28 Jul 00:37:07 00:41:28 64° 83° (E) 00:45:48
QB50P2 28 Jul 00:45:07 00:49:15 48° 286° (WNW) 00:53:21 145.880/145.840
ESTCUBE 1 28 Jul 00:46:04 00:48:36 15° 266° (W) 00:51:09 437.505/2401.250
SPROUT 28 Jul 00:46:19 00:50:29 54° 260° (W) 00:54:42 437.525
POLYITAN 1 28 Jul 00:47:46 00:51:54 47° 286° (WNW) 00:56:00 437.675
JUGNU 28 Jul 00:51:06 00:54:07 14° 167° (SSE) 00:57:09 437.505
CUBEBUG 1 28 Jul 00:57:56 01:00:31 16° 266° (W) 01:03:06 437.445
VELOX 1 28 Jul 00:58:30 01:01:30 18° 265° (W) 01:04:31 145.980
ITUPSAT 1 28 Jul 01:14:40 01:16:14 11° 64° (ENE) 01:17:48 437.325
NANOSAT C BR1 28 Jul 01:31:17 01:34:00 17° 292° (WNW) 01:36:42 145.865
DUCHIFAT 1 28 Jul 01:35:12 01:37:49 16° 292° (WNW) 01:40:26 145.980
TISAT 1 28 Jul 01:38:32 01:42:39 61° 259° (W) 01:46:50 437.305
Oscar 19 28 Jul 01:40:58 01:45:38 33° 98° (E) 01:50:16 437.125/150
BUGSAT 1 28 Jul 01:45:13 01:48:49 27° 289° (WNW) 01:52:25 437.445
GONETS M04 28 Jul 01:51:52 01:59:38 33° 75° (ENE) 02:07:22
Cosmos 2499 28 Jul 01:57:17 02:02:53 21° 70° (ENE) 02:08:13 435.465 / 435.565
SWISSCUBE 28 Jul 02:03:54 02:08:28 46° 73° (ENE) 02:13:03 437.505
JAS-2 28 Jul 02:12:42 02:17:28 33° 289° (WNW) 02:22:36 435.910
BEESAT 28 Jul 02:24:57 02:29:42 71° 75° (ENE) 02:34:29 436.000
JUGNU 28 Jul 02:38:11 02:42:27 20° 177° (S) 02:46:42 437.505
ITUPSAT 1 28 Jul 02:48:42 02:53:28 65° 258° (WSW) 02:58:15 437.325
CUSAT 1 28 Jul 02:52:21 02:55:05 16° 96° (E) 02:57:27 437.405
AO-7 28 Jul 02:55:42 02:59:11 13° 92° (E) 03:02:39 29.400- 29.500
MOZHAYETS 4 28 Jul 02:59:12 03:02:15 18° 68° (ENE) 03:05:18
Gurwin Techsat 1B 28 Jul 03:08:10 03:13:29 77° 285° (WNW) 03:18:47 435.225
SRMSAT 28 Jul 03:09:39 03:12:37 14° 167° (SSE) 03:15:35 437.500
ISS 28 Jul 03:13:07 03:15:23 17° 32° (NNE) 03:17:38 145.825
ITAMSAT 1 28 Jul 03:17:14 03:22:05 39° 99° (E) 03:26:53 435.822/435.867
Oscar 19 28 Jul 03:20:37 03:24:43 24° 292° (WNW) 03:28:50 437.125/150
BEESAT 3 28 Jul 03:22:20 03:26:06 41° 58° (ENE) 03:29:51 437.485
DANDE 28 Jul 03:22:46 03:26:36 18° 95° (E) 03:29:51 436.750
BEESAT 2 28 Jul 03:30:38 03:34:05 27° 55° (NE) 03:37:29 435.950
SWISSCUBE 28 Jul 03:43:45 03:46:26 15° 266° (W) 03:49:07 437.505
GONETS M04 28 Jul 03:48:16 03:56:31 46° 271° (W) 04:04:46
Cosmos 2499 28 Jul 03:49:02 03:56:31 58° 269° (W) 04:03:30 435.465 / 435.565
KKS-1 28 Jul 03:52:47 03:57:10 68° 76° (ENE) 04:01:36 437.445
CUBESAT XI-V 28 Jul 04:21:41 04:24:22 15° 67° (ENE) 04:27:02 437.345
PCSat 28 Jul 04:23:21 04:28:30 42° 59° (ENE) 04:33:37 145.827
JUGNU 28 Jul 04:26:46 04:30:49 19° 187° (S) 04:34:50 437.505
STARS 28 Jul 04:28:41 04:33:04 84° 75° (ENE) 04:37:29 437.465
CUSAT 1 28 Jul 04:33:40 04:36:57 21° 279° (W) 04:39:41 437.405
MOZHAYETS 4 28 Jul 04:34:47 04:39:05 37° 262° (W) 04:43:24
AO-7 28 Jul 04:44:28 04:52:52 85° 106° (ESE) 05:01:11 29.400- 29.500
ISS 28 Jul 04:48:51 04:51:57 41° 227° (SW) 04:55:01 145.825
SRMSAT 28 Jul 04:56:53 05:01:06 20° 177° (S) 05:05:18 437.500
ITAMSAT 1 28 Jul 04:57:25 05:01:14 21° 293° (WNW) 05:05:01 435.822/435.867
BEESAT 3 28 Jul 05:01:46 05:03:22 12° 252° (WSW) 05:04:57 437.485
DANDE 28 Jul 05:03:50 05:09:17 38° 279° (W) 05:13:29 436.750
BEESAT 2 28 Jul 05:08:46 05:11:42 20° 250° (WSW) 05:14:38 435.950
HORYU 2 28 Jul 05:12:06 05:15:59 29° 97° (E) 05:19:50 437.375
O/OREOS (USA 219) 28 Jul 05:23:59 05:24:24 10° 57° (ENE) 05:24:49 437.305
AIST 2 28 Jul 05:39:51 05:43:35 31° 56° (NE) 05:47:18 435.215
NOAA 18 28 Jul 05:51:07 05:52:48 11° 92° (E) 05:54:29 137.9125
CUBESAT XI-V 28 Jul 05:56:58 06:01:20 43° 261° (W) 06:05:44 437.345
RS-15 28 Jul 06:00:54 06:11:35 51° 109° (ESE) 06:22:49 29.354- 29.394
BRITE-PL 28 Jul 06:06:06 06:10:36 33° 98° (E) 06:15:23 437.365/2234.400
PCSat 28 Jul 06:07:34 06:11:33 21° 254° (WSW) 06:15:31 145.827
STRAND 1 28 Jul 06:16:24 06:19:41 17° 66° (ENE) 06:22:57 437.568
LilacSat-2 28 Jul 06:17:09 06:19:49 18° 95° (E) 06:22:28 437.200
JUGNU 28 Jul 06:17:28 06:19:06 11° 196° (SSW) 06:20:45 437.505
Cubesat XI-IV 28 Jul 06:20:09 06:24:27 24° 96° (E) 06:28:42 437.490
AO-7 28 Jul 06:39:13 06:44:35 19° 304° (NW) 06:49:56 29.400- 29.500
CUTE-I 28 Jul 06:42:52 06:47:54 41° 99° (E) 06:52:53 437.470
SRMSAT 28 Jul 06:45:37 06:49:36 19° 187° (S) 06:53:35 437.500
HORYU 2 28 Jul 06:48:59 06:52:19 21° 291° (WNW) 06:55:38 437.375
DOVE 4 28 Jul 06:50:52 06:54:41 20° 94° (E) 06:58:31 437.250
NOAA 15 28 Jul 06:59:06 07:04:24 84° 103° (ESE) 07:09:41 137.62
O/OREOS (USA 219) 28 Jul 06:59:44 07:04:15 69° 253° (WSW) 07:08:46 437.305
GOMX 1 28 Jul 07:02:20 07:07:27 59° 101° (E) 07:12:47 467.674
SO-50 28 Jul 07:09:08 07:13:29 33° 112° (ESE) 07:17:50 436.795
AIST 2 28 Jul 07:18:53 07:21:50 19° 250° (WSW) 07:24:46 435.215
Cosmos 2491 28 Jul 07:22:13 07:27:21 17° 67° (ENE) 07:32:29 435.465 / 435.565
NOAA 18 28 Jul 07:28:23 07:33:55 74° 286° (WNW) 07:39:23 137.9125
BRITE-PL 28 Jul 07:44:57 07:48:53 24° 289° (WNW) 07:53:02 437.365/2234.400
LilacSat-2 28 Jul 07:50:56 07:54:04 24° 288° (WNW) 07:57:09 437.200
CANX-2 28 Jul 07:52:48 07:55:41 18° 94° (E) 07:58:33 2200.000
STRAND 1 28 Jul 07:53:28 07:58:25 48° 260° (W) 08:03:24 437.568
Cubesat XI-IV 28 Jul 07:59:43 08:04:30 35° 290° (WNW) 08:09:16 437.490
CUTE 1.7 + AOD 2 28 Jul 08:05:38 08:08:56 22° 96° (E) 08:12:12 437.475
RS-15 28 Jul 08:13:18 08:24:05 45° 310° (NW) 08:35:30 29.354- 29.394
PRISM 28 Jul 08:20:21 08:24:05 37° 73° (ENE) 08:27:51 437.425
CUTE-I 28 Jul 08:23:44 08:27:36 21° 294° (WNW) 08:31:28 437.470
DOVE 4 28 Jul 08:27:32 08:32:25 42° 287° (WNW) 08:37:22 437.250
CINEMA 3 28 Jul 08:30:20 08:35:20 62° 100° (E) 08:40:12 145.822/145.860
SRMSAT 28 Jul 08:36:30 08:38:03 11° 196° (SSW) 08:39:36 437.500
SEEDS 28 Jul 08:42:01 08:45:58 42° 98° (E) 08:49:55 437.485
GOMX 1 28 Jul 08:42:10 08:45:03 15° 293° (WNW) 08:48:00 467.674
NOAA 15 28 Jul 08:42:41 08:43:24 10° 298° (WNW) 08:44:08 137.62
YUBILEINY 28 Jul 08:44:24 08:51:33 29° 84° (E) 08:58:43 435.215
HO-68 28 Jul 08:49:21 08:56:33 71° 104° (ESE) 09:03:42 435.675
SO-50 28 Jul 08:49:55 08:53:58 26° 307° (NW) 08:58:01 436.795
COMPASS 1 28 Jul 08:51:35 08:55:25 37° 98° (E) 08:59:14 437.405
FUNcube-1 28 Jul 09:02:44 09:04:50 13° 92° (E) 09:06:54 145.935
ZACube-1 28 Jul 09:03:59 09:06:32 15° 93° (E) 09:09:01 437.345
UWE-3 28 Jul 09:05:13 09:09:01 26° 96° (E) 09:12:43 435.000/436.395/437.385
Cosmos 2491 28 Jul 09:16:25 09:25:12 85° 265° (W) 09:34:00 435.465 / 435.565
AAUSAT CUBESAT 2 28 Jul 09:18:27 09:22:33 64° 101° (ESE) 09:26:36 437.432
CANX-2 28 Jul 09:27:54 09:31:31 29° 288° (WNW) 09:35:08 2200.000
CUBEBUG 2 28 Jul 09:29:20 09:34:02 78° 102° (ESE) 09:38:35 437.445
DELFI C3 28 Jul 09:32:48 09:34:15 12° 93° (E) 09:35:42 145.870
TIGRISAT 28 Jul 09:33:08 09:36:24 19° 68° (ENE) 09:39:42 435.000
Cosmos 2504 28 Jul 09:40:37 09:46:54 22° 82° (E) 09:53:11 435.465 / 435.565
CUTE 1.7 + AOD 2 28 Jul 09:41:18 09:44:39 24° 289° (WNW) 09:48:00 437.475
Oscar 11 28 Jul 09:41:41 09:45:48 43° 99° (E) 09:49:53 145.826/435.025
UNISAT 6 28 Jul 09:49:02 09:53:05 31° 71° (ENE) 09:57:10 437.425
PRISM 28 Jul 09:57:35 09:59:30 13° 266° (W) 10:01:26 437.425
HUMSAT D 28 Jul 10:07:21 10:09:45 15° 93° (E) 10:12:08 437.325/437.525
CINEMA 3 28 Jul 10:09:35 10:11:50 13° 295° (WNW) 10:14:05 145.822/145.860
SEEDS 28 Jul 10:19:27 10:21:15 13° 293° (WNW) 10:23:04 437.485
ANTELSAT 28 Jul 10:26:47 10:31:23 83° 77° (ENE) 10:36:06 437.575/2403.000
COMPASS 1 28 Jul 10:28:27 10:30:37 14° 292° (WNW) 10:32:46 437.405
RS-15 28 Jul 10:34:55 10:41:04 15° 341° (NNW) 10:47:22 29.354- 29.394
FUNcube-1 28 Jul 10:37:03 10:41:16 43° 286° (WNW) 10:45:22 145.935
M-CUBED/EXP-1 PRIME 28 Jul 10:37:38 10:42:12 49° 104° (ESE) 10:46:42 437.505
HO-68 28 Jul 10:38:44 10:43:31 19° 300° (WNW) 10:48:17 435.675
ZACube-1 28 Jul 10:38:48 10:42:56 38° 287° (WNW) 10:46:59 437.345
YUBILEINY 28 Jul 10:39:20 10:47:47 52° 281° (W) 10:56:22 435.215
UWE-3 28 Jul 10:41:41 10:45:20 24° 290° (WNW) 10:48:54 435.000/436.395/437.385
NANOSAT C BR1 28 Jul 10:44:08 10:46:41 16° 68° (ENE) 10:49:16 145.865
DUCHIFAT 1 28 Jul 10:47:41 10:50:18 16° 68° (ENE) 10:52:56 145.980
AUBIESAT-1 28 Jul 11:02:30 11:07:11 77° 105° (ESE) 11:11:44 437.475
DELFI C3 28 Jul 11:05:34 11:09:13 37° 286° (WNW) 11:12:52 145.870
QB50P1 28 Jul 11:06:02 11:09:45 30° 72° (ENE) 11:13:29 145.935-145.965
ESTCUBE 1 28 Jul 11:06:06 11:07:29 11° 92° (E) 11:08:51 437.505/2401.250
TIGRISAT 28 Jul 11:08:35 11:12:46 35° 262° (W) 11:17:03 435.000
POPSAT HIP 1 28 Jul 11:12:26 11:16:18 35° 73° (ENE) 11:20:12 437.405
Cosmos 2491 28 Jul 11:17:09 11:20:38 13° 282° (WNW) 11:24:08 435.465 / 435.565
Oscar 11 28 Jul 11:19:26 11:21:31 13° 293° (WNW) 11:23:35 145.826/435.025
UNISAT 6 28 Jul 11:26:15 11:29:45 21° 265° (W) 11:33:19 437.425
Cosmos 2504 28 Jul 11:30:38 11:39:25 69° 278° (W) 11:48:16 435.465 / 435.565
QB50P2 28 Jul 11:33:19 11:37:33 72° 75° (ENE) 11:41:48 145.880/145.840
POLYITAN 1 28 Jul 11:35:56 11:40:11 74° 75° (ENE) 11:44:27 437.675
HUMSAT D 28 Jul 11:41:42 11:45:27 33° 287° (WNW) 11:49:09 437.325/437.525
DX 1 28 Jul 11:55:32 11:58:22 17° 95° (E) 12:01:11 434.975-435.025
AISAT 28 Jul 11:59:49 12:03:42 29° 97° (E) 12:07:34 437.250
50 SAT 28 Jul 12:05:44 12:08:57 31° 98° (E) 12:12:10 437.505
UKube-1 28 Jul 12:06:32 12:09:24 17° 95° (E) 12:12:15 .
M-CUBED/EXP-1 PRIME 28 Jul 12:13:23 12:16:14 16° 298° (WNW) 12:19:06 437.505
NANOSAT C BR1 28 Jul 12:18:14 12:22:06 35° 262° (W) 12:26:00 145.865
JAS-2 28 Jul 12:20:09 12:26:15 64° 75° (ENE) 12:31:43 435.910
DUCHIFAT 1 28 Jul 12:21:51 12:25:40 34° 262° (W) 12:29:33 145.980
BUGSAT 1 28 Jul 12:30:14 12:34:16 66° 260° (W) 12:38:23 437.445
SPROUT 28 Jul 12:36:15 12:40:09 32° 98° (E) 12:44:00 437.525
ESTCUBE 1 28 Jul 12:40:10 12:44:31 52° 286° (WNW) 12:48:52 437.505/2401.250
AUBIESAT-1 28 Jul 12:40:14 12:40:56 10° 301° (WNW) 12:41:38 437.475
QB50P1 28 Jul 12:42:40 12:45:31 18° 265° (W) 12:48:24 145.935-145.965
AO-85 28 Jul 12:43:31 12:48:18 33° 112° (ESE) 12:52:59 145.980
CUBEBUG 1 28 Jul 12:48:13 12:52:34 64° 285° (WNW) 12:56:56 437.445
Gurwin Techsat 1B 28 Jul 12:49:07 12:51:17 13° 63° (ENE) 12:53:26 435.225
POPSAT HIP 1 28 Jul 12:49:43 12:52:10 15° 266° (W) 12:54:38 437.405
VELOX 1 28 Jul 12:50:41 12:55:08 73° 285° (WNW) 12:59:34 145.980
Oscar 19 28 Jul 12:54:08 12:58:39 33° 70° (ENE) 13:03:11 437.125/150
RS-15 28 Jul 12:55:05 13:01:27 15° 20° (NNE) 13:07:50 29.354- 29.394
AIST 1 28 Jul 13:02:22 13:06:23 44° 92° (E) 13:10:26
TISAT 1 28 Jul 13:26:38 13:30:15 26° 97° (E) 13:33:50 437.305
DX 1 28 Jul 13:30:38 13:34:36 34° 288° (WNW) 13:38:32 434.975-435.025
Cosmos 2504 28 Jul 13:32:07 13:34:20 11° 297° (WNW) 13:36:33 435.465 / 435.565
AISAT 28 Jul 13:36:38 13:39:58 21° 291° (WNW) 13:43:17 437.250
50 SAT 28 Jul 13:40:48 13:42:16 12° 292° (WNW) 13:43:43 437.505
UKube-1 28 Jul 13:41:36 13:45:27 32° 289° (WNW) 13:49:19 .
AO-7 28 Jul 13:51:04 13:55:31 16° 54° (NE) 13:59:58 29.400- 29.500
JAS-2 28 Jul 14:08:32 14:11:31 14° 265° (W) 14:14:23 435.910
SWISSCUBE 28 Jul 14:09:14 14:12:07 16° 94° (E) 14:14:58 437.505
SPROUT 28 Jul 14:12:56 14:15:48 18° 291° (WNW) 14:18:39 437.525
AO-85 28 Jul 14:24:02 14:28:45 30° 305° (NW) 14:33:20 145.980
Gurwin Techsat 1B 28 Jul 14:25:16 14:30:33 71° 259° (WSW) 14:35:53 435.225
Cosmos 2499 28 Jul 14:28:22 14:34:43 23° 83° (E) 14:41:00 435.465 / 435.565
BEESAT 28 Jul 14:29:36 14:33:28 24° 96° (E) 14:37:17 436.000
ITAMSAT 1 28 Jul 14:31:18 14:36:10 41° 71° (ENE) 14:41:03 435.822/435.867
Oscar 19 28 Jul 14:33:53 14:37:56 24° 264° (W) 14:42:01 437.125/150
AIST 1 28 Jul 14:42:56 14:44:12 11° 287° (WNW) 14:45:29
GONETS M04 28 Jul 14:47:52 14:55:51 43° 88° (E) 15:03:52
ITUPSAT 1 28 Jul 14:53:12 14:57:44 43° 99° (E) 15:02:14 437.325
TISAT 1 28 Jul 15:02:32 15:05:42 21° 291° (WNW) 15:08:51 437.305
RS-15 28 Jul 15:06:54 15:18:34 45° 50° (NE) 15:30:00 29.354- 29.394
CUSAT 1 28 Jul 15:07:50 15:11:04 58° 262° (W) 15:15:14 437.405
AO-7 28 Jul 15:38:38 15:47:00 82° 71° (ENE) 15:55:24 29.400- 29.500
SWISSCUBE 28 Jul 15:45:34 15:50:03 42° 288° (WNW) 15:54:29 437.505
DANDE 28 Jul 15:45:37 15:48:20 68° 261° (W) 15:51:30 436.750
SO-50 28 Jul 15:46:06 15:47:46 12° 45° (NE) 15:49:25 436.795
KKS-1 28 Jul 15:48:39 15:51:41 18° 95° (E) 15:54:42 437.445
PHONESAT 2.4 28 Jul 15:57:05 16:00:06 58° 152° (SSE) 16:03:08 2401.200-2431.200
HORYU 2 28 Jul 16:07:06 16:10:04 18° 68° (ENE) 16:13:04 437.375
BEESAT 28 Jul 16:07:08 16:11:10 28° 290° (WNW) 16:15:11 436.000
ITAMSAT 1 28 Jul 16:12:00 16:15:44 20° 265° (W) 16:19:28 435.822/435.867
Cosmos 2499 28 Jul 16:18:13 16:27:03 68° 278° (W) 16:35:44 435.465 / 435.565
STARS 28 Jul 16:22:45 16:26:04 20° 96° (E) 16:29:23 437.465
ITUPSAT 1 28 Jul 16:32:15 16:35:10 16° 294° (WNW) 16:38:06 437.325
MOZHAYETS 4 28 Jul 16:33:16 16:37:50 67° 102° (ESE) 16:42:20
GONETS M04 28 Jul 16:44:57 16:52:39 35° 285° (WNW) 17:00:25
BEESAT 3 28 Jul 17:10:12 17:12:53 18° 110° (ESE) 17:15:35 437.485
NOAA 18 28 Jul 17:12:41 17:16:08 17° 64° (ENE) 17:19:34 137.9125
BRITE-PL 28 Jul 17:14:48 17:17:51 20° 70° (ENE) 17:20:53 437.365/2234.400
RS-15 28 Jul 17:19:29 17:31:16 54° 251° (WSW) 17:42:47 29.354- 29.394
BEESAT 2 28 Jul 17:21:03 17:22:25 12° 108° (ESE) 17:23:46 435.950
SO-50 28 Jul 17:24:13 17:28:48 76° 243° (WSW) 17:33:14 436.795
KKS-1 28 Jul 17:24:14 17:28:17 34° 288° (WNW) 17:32:19 437.445
PHONESAT 2.4 28 Jul 17:33:56 17:36:43 30° 347° (NNW) 17:39:30 2401.200-2431.200
AO-7 28 Jul 17:35:23 17:40:27 17° 266° (W) 17:45:33 29.400- 29.500
Cubesat XI-IV 28 Jul 17:38:18 17:42:50 28° 69° (ENE) 17:47:22 437.490
HORYU 2 28 Jul 17:42:13 17:46:19 35° 262° (W) 17:50:27 437.375
DOVE 4 28 Jul 17:55:42 17:56:17 10° 64° (ENE) 17:56:52 437.250
CUBESAT XI-V 28 Jul 17:57:00 18:01:34 62° 101° (E) 18:06:09 437.345
STARS 28 Jul 17:58:34 18:02:23 29° 289° (WNW) 18:06:11 437.465
CUTE-I 28 Jul 18:00:43 18:05:50 47° 72° (ENE) 18:10:58 437.470
GOMX 1 28 Jul 18:07:37 18:11:23 34° 72° (ENE) 18:15:16 467.674
NOAA 15 28 Jul 18:15:15 18:20:30 90° 74° (ENE) 18:25:46 137.62
Cosmos 2499 28 Jul 18:19:52 18:21:38 11° 296° (WNW) 18:23:24 435.465 / 435.565
LilacSat-2 28 Jul 18:27:59 18:31:50 89° 261° (W) 18:35:44 437.200
BEESAT 3 28 Jul 18:46:55 18:50:19 28° 305° (NW) 18:53:46 437.485
NOAA 18 28 Jul 18:50:50 18:56:15 56° 259° (W) 19:01:43 137.9125
BRITE-PL 28 Jul 18:52:49 18:56:12 24° 264° (W) 18:59:35 437.365/2234.400
BEESAT 2 28 Jul 18:56:02 18:59:48 43° 302° (WNW) 19:03:36 435.950
CUTE 1.7 + AOD 2 28 Jul 18:57:09 18:57:51 10° 66° (ENE) 18:58:33 437.475
PCSat 28 Jul 19:00:36 19:06:01 87° 115° (ESE) 19:11:28 145.827
PHONESAT 2.4 28 Jul 19:11:11 19:13:43 23° 4° (N) 19:16:15 2401.200-2431.200
HO-68 28 Jul 19:13:59 19:20:21 36° 66° (ENE) 19:26:44 435.675
Cubesat XI-IV 28 Jul 19:18:03 19:22:45 30° 263° (W) 19:27:28 437.490
CINEMA 3 28 Jul 19:28:09 19:32:11 34° 72° (ENE) 19:36:25 145.822/145.860
DOVE 4 28 Jul 19:29:10 19:33:20 58° 260° (W) 19:37:45 437.250
O/OREOS (USA 219) 28 Jul 19:30:01 19:33:23 21° 101° (ESE) 19:36:45 437.305
SEEDS 28 Jul 19:30:41 19:33:38 19° 70° (ENE) 19:36:35 437.485
AIST 2 28 Jul 19:34:52 19:37:24 16° 109° (ESE) 19:39:56 435.215
CUBESAT XI-V 28 Jul 19:37:09 19:38:23 11° 295° (WNW) 19:39:35 437.345
COMPASS 1 28 Jul 19:39:36 19:42:10 16° 69° (ENE) 19:44:43 437.405
CUTE-I 28 Jul 19:42:30 19:46:04 18° 266° (W) 19:49:37 437.470
GOMX 1 28 Jul 19:47:20 19:49:37 14° 267° (W) 19:51:57 467.674
ISS 28 Jul 19:49:10 19:52:09 34° 131° (SE) 19:55:07 145.825
UWE-3 28 Jul 19:59:24 20:01:50 14° 67° (ENE) 20:04:18 435.000/436.395/437.385
AAUSAT CUBESAT 2 28 Jul 20:05:12 20:08:36 25° 72° (ENE) 20:12:00 437.432
STRAND 1 28 Jul 20:07:41 20:12:48 80° 103° (ESE) 20:17:53 437.568
CANX-2 28 Jul 20:15:48 20:20:05 70° 260° (W) 20:24:20 2200.000
Cosmos 2491 28 Jul 20:18:55 20:25:02 22° 82° (E) 20:31:08 435.465 / 435.565
CUBEBUG 2 28 Jul 20:23:09 20:27:24 39° 73° (ENE) 20:31:47 437.445
CUTE 1.7 + AOD 2 28 Jul 20:28:58 20:33:10 56° 260° (W) 20:37:22 437.475
Oscar 11 28 Jul 20:33:10 20:36:27 21° 70° (ENE) 20:39:43 145.826/435.025
PHONESAT 2.4 28 Jul 20:47:37 20:50:37 49° 19° (NNE) 20:53:37 2401.200-2431.200
PCSat 28 Jul 20:47:52 20:50:06 12° 312° (NW) 20:52:22 145.827
YUBILEINY 28 Jul 20:54:01 21:02:50 67° 82° (E) 21:11:32 435.215
HO-68 28 Jul 21:01:22 21:07:54 38° 261° (W) 21:14:31 435.675
SEEDS 28 Jul 21:05:24 21:09:05 29° 263° (W) 21:12:47 437.485
CINEMA 3 28 Jul 21:06:17 21:09:24 18° 267° (W) 21:12:37 145.822/145.860
O/OREOS (USA 219) 28 Jul 21:08:46 21:12:34 27° 296° (WNW) 21:16:24 437.305
AIST 2 28 Jul 21:11:48 21:15:33 35° 303° (WNW) 21:19:21 435.215
